Change the Weather History Date:

Wednesday, November 13, 2013

  Actual Average Record
Temperature  
Mean Temperature 58 °F -  
Max Temperature 71 °F 57 °F 71 °F (2013)
Min Temperature 46 °F 44 °F 41 °F (1997)
Degree Days  
Heating Degree Days 6    
Growing Degree Days 8 (Base 50)    
Moisture  
Dew Point 43 °F    
Average Humidity 63    
Maximum Humidity 76    
Minimum Humidity 33    
Precipitation  
Precipitation 0.00 in - - ()
Sea Level Pressure  
Sea Level Pressure 30.03 in    
Wind  
Wind Speed 3 mph ()    
Max Wind Speed 6 mph    
Max Gust Speed -    
Visibility 6.2 miles    
Events      
Averages and records for this station are not official NWS values.
T = Trace of Precipitation, MM = Missing Value Source: Averaged Metar Reports

Daily Weather History Graph

Daily Weather History Graph

Search for Another Location

Airport or City:

Trip Planner

Search our weather history database for the weather conditions in past years. The results will help you decide how hot, cold, wet, or windy it might be!

Date:

Astronomy

Nov. 13, 2013 Rise Set
Actual Time 7:23 AM CET 5:09 PM CET
Civil Twilight 6:52 AM CET 5:39 PM CET
Nautical Twilight 6:18 AM CET 6:14 PM CET
Astronomical Twilight 5:44 AM CET 6:48 PM CET
Moon 2:54 PM CET (11/13) 2:52 AM CET (11/13)
Length of Visible Light 10h 47m
Length of Day
9h 45m
Waxing Gibbous, 82% of the Moon is Illuminated
Nov 13
Waxing Gibbous
Nov 17
Full
Nov 25
Last Quarter
Dec 3
New
Dec 9
First Quarter

Hourly Weather History & Observations

Time (CET) Temp. Windchill Dew Point Humidity Pressure Visibility Wind Dir Wind Speed Gust Speed Precip Events Conditions
12:00 AM 48.2 °F - 41.0 °F 76% 30.04 in 6.2 mi Variable 3.5 mph - N/A   Unknown
12:30 AM 48.2 °F - 41.0 °F 76% 30.04 in 6.2 mi North 3.5 mph - N/A   Unknown
1:00 AM 48.2 °F - 39.2 °F 71% 30.01 in 6.2 mi North 4.6 mph - N/A   Unknown
1:30 AM 48.2 °F - 39.2 °F 71% 30.01 in 6.2 mi North 4.6 mph - N/A   Unknown
2:00 AM 48.2 °F - 39.2 °F 71% 30.01 in 6.2 mi Variable 3.5 mph - N/A   Unknown
2:30 AM 48.2 °F - 39.2 °F 71% 30.01 in 6.2 mi NNE 3.5 mph - N/A   Unknown
3:00 AM 48.2 °F - 39.2 °F 71% 30.01 in 6.2 mi North 4.6 mph - N/A   Unknown
3:30 AM 48.2 °F - 39.2 °F 71% 30.04 in 6.2 mi North 3.5 mph - N/A   Unknown
4:00 AM 46.4 °F 44.3 °F 39.2 °F 76% 30.01 in 6.2 mi North 4.6 mph - N/A   Unknown
4:30 AM 46.4 °F 44.3 °F 39.2 °F 76% 30.01 in 6.2 mi North 4.6 mph - N/A   Unknown
5:00 AM 46.4 °F 43.5 °F 39.2 °F 76% 30.01 in 6.2 mi NNE 5.8 mph - N/A   Unknown
5:30 AM 46.4 °F 45.2 °F 39.2 °F 76% 30.01 in 6.2 mi North 3.5 mph - N/A   Unknown
6:00 AM 46.4 °F 45.2 °F 39.2 °F 76% 29.98 in 6.2 mi North 3.5 mph - N/A   Unknown
6:30 AM 46.4 °F 44.3 °F 39.2 °F 76% 30.01 in 6.2 mi North 4.6 mph - N/A   Unknown
7:00 AM 46.4 °F 44.3 °F 39.2 °F 76% 30.01 in 6.2 mi NNE 4.6 mph - N/A   Unknown
7:30 AM 46.4 °F 43.5 °F 39.2 °F 76% 30.01 in 6.2 mi North 5.8 mph - N/A   Unknown
8:00 AM 46.4 °F 44.3 °F 39.2 °F 76% 30.04 in 6.2 mi North 4.6 mph - N/A   Unknown
8:30 AM 50.0 °F - 39.2 °F 66% 30.04 in 6.2 mi NNE 4.6 mph - N/A   Unknown
9:00 AM 51.8 °F - 41.0 °F 67% 30.04 in 6.2 mi North 4.6 mph - N/A   Unknown
9:30 AM 55.4 °F - 42.8 °F 63% 30.04 in 5.6 mi North 4.6 mph - N/A   Unknown
10:00 AM 59.0 °F - 44.6 °F 59% 30.06 in 6.2 mi Variable 3.5 mph - N/A   Unknown
10:30 AM 64.4 °F - 44.6 °F 49% 30.06 in 6.2 mi Calm Calm - N/A   Unknown
11:00 AM 68.0 °F - 46.4 °F 46% 30.04 in 6.2 mi Calm Calm - N/A   Unknown
11:30 AM 69.8 °F - 46.4 °F 43% 30.04 in 6.2 mi Calm Calm - N/A   Unknown
12:00 PM 69.8 °F - 44.6 °F 40% 30.04 in 6.2 mi Variable 1.2 mph - N/A   Unknown
12:30 PM 68.0 °F - 50.0 °F 52% 30.01 in 6.2 mi SSE 5.8 mph - N/A   Unknown
1:00 PM 71.6 °F - 50.0 °F 46% 30.01 in 6.2 mi SSE 4.6 mph - N/A   Unknown
1:30 PM 69.8 °F - 46.4 °F 43% 30.01 in 6.2 mi SSE 4.6 mph - N/A   Unknown
2:00 PM 71.6 °F - 44.6 °F 38% 30.01 in 6.2 mi SSE 3.5 mph - N/A   Unknown
2:30 PM 71.6 °F - 41.0 °F 33% 30.01 in 6.2 mi Variable 2.3 mph - N/A   Unknown
3:00 PM 71.6 °F - 44.6 °F 38% 30.01 in 6.2 mi South 3.5 mph - N/A   Unknown
3:30 PM 71.6 °F - 44.6 °F 38% 30.01 in 6.2 mi Variable 3.5 mph - N/A   Scattered Clouds
4:00 PM 69.8 °F - 48.2 °F 46% 30.01 in 6.2 mi Variable 3.5 mph - N/A   Mostly Cloudy
4:30 PM 68.0 °F - 48.2 °F 49% 30.01 in 6.2 mi SE 3.5 mph - N/A   Mostly Cloudy
5:00 PM 66.2 °F - 48.2 °F 52% 30.01 in 6.2 mi Variable 1.2 mph - N/A   Partly Cloudy
5:30 PM 62.6 °F - 48.2 °F 59% 30.01 in 6.2 mi Variable 2.3 mph - N/A   Mostly Cloudy
6:00 PM 59.0 °F - 46.4 °F 63% 30.01 in 6.2 mi Variable 2.3 mph - N/A   Partly Cloudy
6:30 PM 59.0 °F - 46.4 °F 63% 30.04 in 6.2 mi Variable 2.3 mph - N/A   Unknown
7:00 PM 57.2 °F - 46.4 °F 67% 30.04 in 6.2 mi North 3.5 mph - N/A   Partly Cloudy
7:30 PM 55.4 °F - 44.6 °F 67% 30.04 in 6.2 mi North 3.5 mph - N/A   Scattered Clouds
8:00 PM 55.4 °F - 44.6 °F 67% 30.04 in 6.2 mi Variable 3.5 mph - N/A   Unknown
8:30 PM 53.6 °F - 44.6 °F 72% 30.04 in 6.2 mi Variable 1.2 mph - N/A   Unknown
9:00 PM 53.6 °F - 44.6 °F 72% 30.04 in 6.2 mi Variable 2.3 mph - N/A   Unknown
9:30 PM 53.6 °F - 44.6 °F 72% 30.06 in 6.2 mi Variable 2.3 mph - N/A   Unknown
10:00 PM 53.6 °F - 42.8 °F 67% 30.04 in 6.2 mi Variable 3.5 mph - N/A   Unknown
10:30 PM 53.6 °F - 42.8 °F 67% 30.06 in 6.2 mi North 3.5 mph - N/A   Unknown
11:00 PM 51.8 °F - 42.8 °F 71% 30.06 in 6.2 mi North 4.6 mph - N/A   Unknown
11:30 PM 53.6 °F - 42.8 °F 67% 30.06 in 6.2 mi North 3.5 mph - N/A   Unknown